User: anonymous   Login
Location: S�tio Afonso Gruber
(26.1760°S, 49.5250°W)
Time: 23:35:18
(UTC+00:00)
Language:

Cosmos 2016 Rocket - Orbit

View from above orbital plane
View from above orbital plane
View from above satellite
View from above satellite

Ground track
Ground track

The orbit data is extracted from the following two-line orbital elements,

1 19922U 89028B   21127.94040272  .00000090  00000-0  75514-4 0  9996
2 19922  82.9572  92.8031 0035391 224.5239 135.3074 13.77237805612532
Epoch (UTC): 07 May 2021 22:34:10
Eccentricity: 0.0035391
inclination: 82.9572°
perigee height: 947 km
apogee height: 1000 km
right ascension of ascending node: 92.8031°
argument of perigee: 224.5239°
revolutions per day: 13.77237805
mean anomaly at epoch: 135.3074°
orbit number at epoch: 61253

The dashed part of the orbit path shows where the satellite is in the earth's shadow,  

DLR